DIANT EDDL-ZZZZ

Flight info

Callsign DIANT
Flight time N/A
Altitude
Route EDDL/05R
Aircraft DA42

Departure

Time 2026-05-05 19:40
Airport Düsseldorf Airport (EDDL)

Arrival

Time N/A
Airport ZZZZ
Time Latitude Longitude Altitude Speed Heading
2026-05-05 19:37 51.27841 6.75350 116 ft 0 kts 334°
2026-05-05 19:38 51.27845 6.75347 114 ft 6 kts 333°
2026-05-05 19:38 51.27976 6.75275 111 ft 26 kts 14°
2026-05-05 19:38 51.28025 6.75332 111 ft 0 kts 54°
2026-05-05 19:39 51.28050 6.75387 112 ft 30 kts 54°
2026-05-05 19:39 51.28312 6.75935 119 ft 88 kts 52°
2026-05-05 19:39 51.28738 6.76822 288 ft 106 kts 49°
2026-05-05 19:39 51.28937 6.77970 535 ft 120 kts 102°
2026-05-05 19:40 51.28394 6.78962 786 ft 125 kts 146°
2026-05-05 19:40 51.27651 6.79828 946 ft 139 kts 149°
2026-05-05 19:40 51.26821 6.80684 1100 ft 148 kts 152°
2026-05-05 19:40 51.25953 6.81598 1336 ft 151 kts 150°
2026-05-05 19:41 51.25076 6.82539 1615 ft 152 kts 149°
2026-05-05 19:41 51.24186 6.83480 1856 ft 155 kts 150°
2026-05-05 19:41 51.23266 6.84419 2047 ft 159 kts 150°
2026-05-05 19:41 51.22360 6.85523 2061 ft 171 kts 143°
2026-05-05 19:42 51.21415 6.86738 2057 ft 177 kts 144°
2026-05-05 19:42 51.20478 6.87984 2201 ft 173 kts 136°
2026-05-05 19:42 51.19970 6.88944 2335 ft 170 kts 127°
2026-05-05 19:42 51.19274 6.90464 2476 ft 170 kts 129°
2026-05-05 19:43 51.18541 6.91945 2567 ft 168 kts 131°
2026-05-05 19:43 51.17726 6.93478 2265 ft 191 kts 134°
2026-05-05 19:43 51.16833 6.95003 2363 ft 183 kts 135°
2026-05-05 19:43 51.15970 6.96450 2506 ft 178 kts 135°
2026-05-05 19:44 51.15225 6.97974 2741 ft 172 kts 119°
2026-05-05 19:44 51.15016 6.99734 3228 ft 151 kts 92°
2026-05-05 19:44 51.14964 7.01392 3494 ft 157 kts 92°
2026-05-05 19:44 51.14940 7.03199 3501 ft 172 kts 89°
2026-05-05 19:45 51.14957 7.04509 3502 ft 177 kts 89°
2026-05-05 19:45 51.15018 7.07113 3503 ft 178 kts 88°
2026-05-05 19:45 51.15069 7.09088 3504 ft 179 kts 88°
2026-05-05 19:45 51.15252 7.11046 3502 ft 180 kts 75°
2026-05-05 19:46 51.15637 7.12913 3585 ft 180 kts 70°
2026-05-05 19:46 51.16070 7.14789 3471 ft 181 kts 70°
2026-05-05 19:46 51.16525 7.16654 3341 ft 179 kts 70°
2026-05-05 19:46 51.16967 7.18475 3337 ft 174 kts 70°
2026-05-05 19:47 51.17405 7.20259 3336 ft 172 kts 70°
2026-05-05 19:47 51.17835 7.22026 3335 ft 171 kts 70°
2026-05-05 19:47 51.18263 7.23794 3332 ft 170 kts 70°
2026-05-05 19:47 51.18686 7.25541 3329 ft 168 kts 70°
2026-05-05 19:48 51.19114 7.27260 3326 ft 166 kts 70°
2026-05-05 19:48 51.19533 7.28974 3327 ft 167 kts 70°
2026-05-05 19:48 51.19965 7.30698 3326 ft 167 kts 70°
2026-05-05 19:48 51.20402 7.32420 3325 ft 167 kts 70°
2026-05-05 19:49 51.20840 7.34136 3331 ft 168 kts 70°
2026-05-05 19:49 51.21281 7.35853 3329 ft 167 kts 70°
2026-05-05 19:49 51.21710 7.37576 3332 ft 168 kts 70°
2026-05-05 19:49 51.22241 7.39239 3325 ft 170 kts 57°
2026-05-05 19:50 51.22926 7.40777 3329 ft 171 kts 56°
2026-05-05 19:50 51.23621 7.42306 3328 ft 169 kts 56°
2026-05-05 19:50 51.24305 7.43834 3325 ft 168 kts 56°
2026-05-05 19:50 51.24981 7.45360 3321 ft 168 kts 56°
2026-05-05 19:51 51.25657 7.46867 3321 ft 167 kts 56°
2026-05-05 19:51 51.26327 7.48348 3324 ft 167 kts 57°
2026-05-05 19:51 51.27008 7.49842 3321 ft 165 kts 56°
2026-05-05 19:51 51.27681 7.51340 3316 ft 165 kts 56°
2026-05-05 19:52 51.28358 7.52819 3323 ft 166 kts 57°
2026-05-05 19:52 51.29046 7.54313 3325 ft 168 kts 56°
2026-05-05 19:52 51.29739 7.55811 3333 ft 169 kts 56°
2026-05-05 19:52 51.30432 7.57328 3332 ft 168 kts 57°
2026-05-05 19:53 51.31132 7.58847 3340 ft 171 kts 56°
2026-05-05 19:53 51.31846 7.60379 3320 ft 172 kts 56°
2026-05-05 19:53 51.32557 7.61915 3322 ft 172 kts 56°
2026-05-05 19:53 51.33257 7.63463 3326 ft 171 kts 56°
2026-05-05 19:54 51.33939 7.65019 3323 ft 170 kts 56°
2026-05-05 19:54 51.34617 7.66565 3320 ft 168 kts 56°
2026-05-05 19:54 51.35301 7.68076 3321 ft 168 kts 49°
2026-05-05 19:54 51.36334 7.68925 3320 ft 172 kts 10°
2026-05-05 19:55 51.37500 7.68538 3320 ft 177 kts 332°
2026-05-05 19:55 51.38299 7.67047 3321 ft 182 kts 294°
2026-05-05 19:55 51.38387 7.65044 3323 ft 184 kts 256°
2026-05-05 19:55 51.37740 7.63301 3322 ft 184 kts 226°
2026-05-05 19:56 51.36860 7.61857 3320 ft 184 kts 223°
2026-05-05 19:56 51.35952 7.60416 3324 ft 184 kts 223°
2026-05-05 19:56 51.35032 7.58979 3325 ft 185 kts 222°
2026-05-05 19:56 51.34100 7.57515 3322 ft 185 kts 222°
2026-05-05 19:57 51.33192 7.56090 3325 ft 186 kts 222°
2026-05-05 19:57 51.32280 7.54638 3330 ft 184 kts 222°
2026-05-05 19:57 51.31376 7.53185 3327 ft 183 kts 223°
2026-05-05 19:57 51.30479 7.51745 3329 ft 184 kts 222°
2026-05-05 19:58 51.29583 7.50296 3328 ft 183 kts 222°
2026-05-05 19:58 51.28687 7.48853 3319 ft 182 kts 222°
2026-05-05 19:58 51.27794 7.47419 3318 ft 182 kts 222°
2026-05-05 19:58 51.26874 7.45965 3015 ft 194 kts 223°
2026-05-05 19:59 51.25905 7.44437 2795 ft 196 kts 221°
2026-05-05 19:59 51.24982 7.42929 2101 ft 204 kts 223°
2026-05-05 19:59 51.23967 7.41350 1958 ft 198 kts 222°
2026-05-05 19:59 51.22991 7.39868 1972 ft 191 kts 222°
2026-05-05 20:00 51.22020 7.38423 1964 ft 190 kts 222°
2026-05-05 20:00 51.21057 7.37006 1961 ft 188 kts 222°
2026-05-05 20:00 51.20092 7.35615 1952 ft 185 kts 222°
2026-05-05 20:00 51.19161 7.34268 2123 ft 173 kts 221°
2026-05-05 20:01 51.18319 7.32958 2368 ft 168 kts 223°
2026-05-05 20:01 51.17477 7.31662 2442 ft 171 kts 222°
2026-05-05 20:01 51.16628 7.30296 2445 ft 177 kts 226°
2026-05-05 20:01 51.15870 7.28727 2443 ft 180 kts 234°
2026-05-05 20:02 51.15169 7.27069 2445 ft 180 kts 235°
2026-05-05 20:02 51.14465 7.25408 2447 ft 181 kts 235°
2026-05-05 20:02 51.13763 7.23746 2448 ft 181 kts 234°
2026-05-05 20:02 51.13069 7.22064 2451 ft 183 kts 235°